Time,TemperatureF,DewpointF,PressureIn,WindDirection,WindDirectionDegrees,WindSpeedMPH,WindSpeedGustMPH,Humidity,HourlyPrecipIn,Conditions,Clouds,dailyrainin,SolarRadiationWatts/m^2,SoftwareType,DateUTC
2013-03-19 00:01:00,34.0,4.4,29.99,SW,226,12.0,17.0,28,0.00,,,0.00,0,WeatherCatV1.14B232,2013-03-19 06:01:00,
2013-03-19 00:06:00,34.1,4.4,29.99,SW,226,9.0,25.0,28,0.00,,,0.00,0,WeatherCatV1.14B232,2013-03-19 06:06:00,
2013-03-19 00:11:00,34.0,4.4,29.99,WNW,287,3.0,12.0,28,0.00,,,0.00,0,WeatherCatV1.14B232,2013-03-19 06:11:00,
2013-03-19 00:16:00,33.7,4.1,29.99,WSW,243,9.0,22.0,28,0.00,,,0.00,0,WeatherCatV1.14B232,2013-03-19 06:16:00,
2013-03-19 00:21:00,33.5,3.9,29.99,West,280,16.0,21.0,28,0.00,,,0.00,0,WeatherCatV1.14B232,2013-03-19 06:21:00,
2013-03-19 00:26:00,33.5,3.9,29.99,West,271,21.0,21.0,28,0.00,,,0.00,0,WeatherCatV1.14B232,2013-03-19 06:26:00,
2013-03-19 00:31:00,33.4,3.8,29.99,West,263,19.0,26.0,28,0.00,,,0.00,0,WeatherCatV1.14B232,2013-03-19 06:31:00,
2013-03-19 00:36:00,33.4,3.8,29.99,WNW,284,18.0,21.0,28,0.00,,,0.00,0,WeatherCatV1.14B232,2013-03-19 06:36:00,
2013-03-19 00:41:00,33.2,3.7,29.99,WSW,246,17.0,22.0,28,0.00,,,0.00,0,WeatherCatV1.14B232,2013-03-19 06:41:00,
2013-03-19 00:46:00,33.1,4.3,29.99,WNW,301,20.0,20.0,29,0.00,,,0.00,0,WeatherCatV1.14B232,2013-03-19 06:46:00,
2013-03-19 00:51:00,32.9,4.2,29.99,WSW,241,18.0,20.0,29,0.00,,,0.00,0,WeatherCatV1.14B232,2013-03-19 06:51:00,
2013-03-19 00:56:00,32.9,4.2,29.99,West,261,6.0,20.0,29,0.00,,,0.00,0,WeatherCatV1.14B232,2013-03-19 06:56:00,
2013-03-19 01:01:00,32.8,4.1,30.00,WNW,295,11.0,21.0,29,0.00,,,0.00,0,WeatherCatV1.14B232,2013-03-19 07:01:00,
2013-03-19 01:06:00,32.8,4.1,30.00,WSW,250,10.0,22.0,29,0.00,,,0.00,0,WeatherCatV1.14B232,2013-03-19 07:06:00,
2013-03-19 01:11:00,32.5,4.6,30.00,West,263,4.0,18.0,30,0.00,,,0.00,0,WeatherCatV1.14B232,2013-03-19 07:11:00,
2013-03-19 01:16:00,32.5,4.6,30.00,WSW,248,17.0,28.0,30,0.00,,,0.00,0,WeatherCatV1.14B232,2013-03-19 07:16:00,
2013-03-19 01:21:00,32.8,4.8,30.00,WSW,254,11.0,19.0,30,0.00,,,0.00,0,WeatherCatV1.14B232,2013-03-19 07:21:00,
2013-03-19 01:26:00,32.7,4.7,30.00,West,280,26.0,26.0,30,0.00,,,0.00,0,WeatherCatV1.14B232,2013-03-19 07:26:00,
2013-03-19 01:31:00,32.8,4.1,30.00,West,263,12.0,22.0,29,0.00,,,0.00,0,WeatherCatV1.14B232,2013-03-19 07:31:00,
2013-03-19 01:36:00,32.7,4.7,30.00,WNW,284,12.0,21.0,30,0.00,,,0.00,0,WeatherCatV1.14B232,2013-03-19 07:36:00,
2013-03-19 01:41:00,32.5,5.3,30.00,WSW,243,13.0,24.0,31,0.00,,,0.00,0,WeatherCatV1.14B232,2013-03-19 07:41:00,
2013-03-19 01:46:00,32.5,5.3,30.00,WNW,287,12.0,20.0,31,0.00,,,0.00,0,WeatherCatV1.14B232,2013-03-19 07:46:00,
2013-03-19 01:51:00,32.4,5.2,30.00,WSW,243,21.0,22.0,31,0.00,,,0.00,0,WeatherCatV1.14B232,2013-03-19 07:51:00,
2013-03-19 01:56:00,32.2,5.0,30.00,West,265,11.0,18.0,31,0.00,,,0.00,0,WeatherCatV1.14B232,2013-03-19 07:56:00,
2013-03-19 02:01:00,31.9,5.4,30.01,West,272,8.0,20.0,32,0.00,,,0.00,0,WeatherCatV1.14B232,2013-03-19 08:01:00,
2013-03-19 02:06:00,31.9,5.4,30.01,WNW,288,11.0,16.0,32,0.00,,,0.00,0,WeatherCatV1.14B232,2013-03-19 08:06:00,
2013-03-19 02:12:00,31.8,5.3,30.01,NW,305,7.0,25.0,32,0.00,,,0.00,0,WeatherCatV1.14B232,2013-03-19 08:12:00,
2013-03-19 02:17:00,31.5,5.7,30.00,West,267,6.0,10.0,33,0.00,,,0.00,0,WeatherCatV1.14B232,2013-03-19 08:17:00,
2013-03-19 02:22:00,31.5,5.1,30.00,West,274,8.0,20.0,32,0.00,,,0.00,0,WeatherCatV1.14B232,2013-03-19 08:22:00,
2013-03-19 02:27:00,31.6,5.2,30.00,West,271,3.0,21.0,32,0.00,,,0.00,0,WeatherCatV1.14B232,2013-03-19 08:27:00,
2013-03-19 02:32:00,31.9,4.7,30.00,West,278,6.0,17.0,31,0.00,,,0.00,0,WeatherCatV1.14B232,2013-03-19 08:32:00,
2013-03-19 02:37:00,32.1,4.9,30.00,NW,305,13.0,13.0,31,0.00,,,0.00,0,WeatherCatV1.14B232,2013-03-19 08:37:00,
2013-03-19 02:42:00,32.1,4.9,30.00,North,350,2.0,14.0,31,0.00,,,0.00,0,WeatherCatV1.14B232,2013-03-19 08:42:00,
2013-03-19 02:47:00,31.9,4.7,30.00,West,272,10.0,17.0,31,0.00,,,0.00,0,WeatherCatV1.14B232,2013-03-19 08:47:00,
2013-03-19 02:52:00,31.9,4.7,30.00,WSW,256,16.0,21.0,31,0.00,,,0.00,0,WeatherCatV1.14B232,2013-03-19 08:52:00,
2013-03-19 02:57:00,32.1,4.9,30.00,West,280,13.0,21.0,31,0.00,,,0.00,0,WeatherCatV1.14B232,2013-03-19 08:57:00,
2013-03-19 03:02:00,32.4,4.5,30.00,WNW,299,7.0,16.0,30,0.00,,,0.00,0,WeatherCatV1.14B232,2013-03-19 09:02:00,
2013-03-19 03:07:00,32.4,4.5,30.00,NW,311,6.0,20.0,30,0.00,,,0.00,0,WeatherCatV1.14B232,2013-03-19 09:07:00,
2013-03-19 03:12:00,32.7,4.0,30.00,SSW,200,13.0,24.0,29,0.00,,,0.00,0,WeatherCatV1.14B232,2013-03-19 09:12:00,
2013-03-19 03:17:00,32.8,4.1,30.00,NNW,333,8.0,22.0,29,0.00,,,0.00,0,WeatherCatV1.14B232,2013-03-19 09:17:00,
2013-03-19 03:22:00,32.7,4.0,30.00,NW,311,11.0,22.0,29,0.00,,,0.00,0,WeatherCatV1.14B232,2013-03-19 09:22:00,
2013-03-19 03:27:00,32.7,4.0,30.00,WNW,298,10.0,17.0,29,0.00,,,0.00,0,WeatherCatV1.14B232,2013-03-19 09:27:00,
2013-03-19 03:32:00,32.8,4.8,30.00,NW,306,7.0,13.0,30,0.00,,,0.00,0,WeatherCatV1.14B232,2013-03-19 09:32:00,
2013-03-19 03:37:00,32.5,4.6,30.00,NW,318,3.0,22.0,30,0.00,,,0.00,0,WeatherCatV1.14B232,2013-03-19 09:37:00,
2013-03-19 03:42:00,32.4,4.5,30.00,SSW,203,7.0,19.0,30,0.00,,,0.00,0,WeatherCatV1.14B232,2013-03-19 09:42:00,
2013-03-19 03:47:00,32.4,4.5,30.00,SW,233,17.0,17.0,30,0.00,,,0.00,0,WeatherCatV1.14B232,2013-03-19 09:47:00,
2013-03-19 03:52:00,32.5,4.6,30.00,WNW,288,5.0,20.0,30,0.00,,,0.00,0,WeatherCatV1.14B232,2013-03-19 09:52:00,
2013-03-19 03:57:00,32.7,4.7,30.00,West,261,13.0,18.0,30,0.00,,,0.00,0,WeatherCatV1.14B232,2013-03-19 09:57:00,
2013-03-19 04:02:00,32.8,4.1,30.00,West,270,14.0,24.0,29,0.00,,,0.00,0,WeatherCatV1.14B232,2013-03-19 10:02:00,
2013-03-19 04:07:00,32.9,4.2,30.00,WNW,301,7.0,25.0,29,0.00,,,0.00,0,WeatherCatV1.14B232,2013-03-19 10:07:00,
2013-03-19 04:12:00,32.9,4.2,30.00,WSW,244,22.0,26.0,29,0.00,,,0.00,0,WeatherCatV1.14B232,2013-03-19 10:12:00,
2013-03-19 04:17:00,32.9,4.9,29.99,WNW,301,14.0,25.0,30,0.00,,,0.00,0,WeatherCatV1.14B232,2013-03-19 10:17:00,
2013-03-19 04:22:00,32.8,4.8,29.99,West,277,4.0,8.0,30,0.00,,,0.00,0,WeatherCatV1.14B232,2013-03-19 10:22:00,
2013-03-19 04:27:00,32.7,4.7,29.99,NW,318,4.0,21.0,30,0.00,,,0.00,0,WeatherCatV1.14B232,2013-03-19 10:27:00,
2013-03-19 04:32:00,32.7,5.4,29.99,WNW,285,6.0,20.0,31,0.00,,,0.00,0,WeatherCatV1.14B232,2013-03-19 10:32:00,
2013-03-19 04:37:00,32.7,5.4,29.99,NW,315,13.0,20.0,31,0.00,,,0.00,0,WeatherCatV1.14B232,2013-03-19 10:37:00,
2013-03-19 04:42:00,32.7,5.4,29.99,West,261,8.0,28.0,31,0.00,,,0.00,0,WeatherCatV1.14B232,2013-03-19 10:42:00,
2013-03-19 04:47:00,32.5,5.3,30.00,NW,312,12.0,18.0,31,0.00,,,0.00,0,WeatherCatV1.14B232,2013-03-19 10:47:00,
2013-03-19 04:52:00,32.5,5.3,30.00,NW,306,7.0,12.0,31,0.00,,,0.00,0,WeatherCatV1.14B232,2013-03-19 10:52:00,
2013-03-19 04:57:00,32.2,5.7,30.00,NNW,333,6.0,18.0,32,0.00,,,0.00,0,WeatherCatV1.14B232,2013-03-19 10:57:00,
2013-03-19 05:02:00,32.1,5.6,30.00,NW,315,6.0,14.0,32,0.00,,,0.00,0,WeatherCatV1.14B232,2013-03-19 11:02:00,
2013-03-19 05:07:00,32.1,5.6,30.00,WSW,243,1.0,22.0,32,0.00,,,0.00,0,WeatherCatV1.14B232,2013-03-19 11:07:00,
2013-03-19 05:12:00,32.1,5.6,30.00,NW,313,6.0,21.0,32,0.00,,,0.00,0,WeatherCatV1.14B232,2013-03-19 11:12:00,
2013-03-19 05:17:00,31.9,6.1,30.00,West,275,8.0,20.0,33,0.00,,,0.00,0,WeatherCatV1.14B232,2013-03-19 11:17:00,
2013-03-19 05:22:00,31.9,6.1,30.00,NW,315,7.0,13.0,33,0.00,,,0.00,0,WeatherCatV1.14B232,2013-03-19 11:22:00,
2013-03-19 05:27:00,31.8,6.0,30.00,WNW,295,6.0,15.0,33,0.00,,,0.00,0,WeatherCatV1.14B232,2013-03-19 11:27:00,
2013-03-19 05:32:00,31.8,6.0,30.00,NW,323,13.0,13.0,33,0.00,,,0.00,0,WeatherCatV1.14B232,2013-03-19 11:32:00,
2013-03-19 05:37:00,31.6,5.8,30.00,WNW,287,10.0,17.0,33,0.00,,,0.00,0,WeatherCatV1.14B232,2013-03-19 11:37:00,
2013-03-19 05:42:00,31.8,6.0,30.00,SW,233,13.0,14.0,33,0.00,,,0.00,0,WeatherCatV1.14B232,2013-03-19 11:42:00,
2013-03-19 05:47:00,31.8,6.0,30.00,West,260,13.0,22.0,33,0.00,,,0.00,0,WeatherCatV1.14B232,2013-03-19 11:47:00,
2013-03-19 05:52:00,31.8,6.0,30.00,WNW,292,17.0,19.0,33,0.00,,,0.00,0,WeatherCatV1.14B232,2013-03-19 11:52:00,
2013-03-19 05:57:00,31.9,6.1,30.00,West,271,11.0,25.0,33,0.00,,,0.00,0,WeatherCatV1.14B232,2013-03-19 11:57:00,
2013-03-19 06:02:00,32.1,6.3,30.00,WNW,292,10.0,24.0,33,0.00,,,0.00,0,WeatherCatV1.14B232,2013-03-19 12:02:00,
2013-03-19 06:07:00,32.2,6.4,30.00,West,271,12.0,16.0,33,0.00,,,0.00,0,WeatherCatV1.14B232,2013-03-19 12:07:00,
2013-03-19 06:12:00,32.2,6.4,30.00,NW,322,7.0,24.0,33,0.00,,,0.00,0,WeatherCatV1.14B232,2013-03-19 12:12:00,
2013-03-19 06:17:00,32.2,6.4,30.01,West,272,11.0,17.0,33,0.00,,,0.00,0,WeatherCatV1.14B232,2013-03-19 12:17:00,
2013-03-19 06:22:00,32.2,6.4,30.01,NW,323,11.0,25.0,33,0.00,,,0.00,0,WeatherCatV1.14B232,2013-03-19 12:22:00,
2013-03-19 06:27:00,32.2,6.4,30.01,NNW,330,13.0,19.0,33,0.00,,,0.00,0,WeatherCatV1.14B232,2013-03-19 12:27:00,
2013-03-19 06:32:00,32.1,6.9,30.02,NW,322,4.0,25.0,34,0.00,,,0.00,0,WeatherCatV1.14B232,2013-03-19 12:32:00,
2013-03-19 06:37:00,32.1,6.3,30.02,West,274,11.0,30.0,33,0.00,,,0.00,0,WeatherCatV1.14B232,2013-03-19 12:37:00,
2013-03-19 06:42:00,32.1,6.9,30.02,NW,312,7.0,13.0,34,0.00,,,0.00,0,WeatherCatV1.14B232,2013-03-19 12:42:00,
2013-03-19 06:47:00,31.9,6.8,30.02,NNW,335,6.0,11.0,34,0.00,,,0.00,0,WeatherCatV1.14B232,2013-03-19 12:47:00,
2013-03-19 06:52:00,31.8,7.3,30.02,WNW,292,7.0,14.0,35,0.00,,,0.00,0,WeatherCatV1.14B232,2013-03-19 12:52:00,
2013-03-19 06:57:00,31.8,7.3,30.02,NNW,344,11.0,24.0,35,0.00,,,0.00,0,WeatherCatV1.14B232,2013-03-19 12:57:00,
2013-03-19 07:02:00,31.8,7.3,30.03,North,356,2.0,16.0,35,0.00,,,0.00,0,WeatherCatV1.14B232,2013-03-19 13:02:00,
2013-03-19 07:07:00,31.8,7.3,30.03,NNW,347,11.0,11.0,35,0.00,,,0.00,5,WeatherCatV1.14B232,2013-03-19 13:07:00,
2013-03-19 07:12:00,31.6,7.1,30.03,WNW,298,3.0,13.0,35,0.00,,,0.00,7,WeatherCatV1.14B232,2013-03-19 13:12:00,
2013-03-19 07:17:00,31.6,7.1,30.03,NNW,339,3.0,10.0,35,0.00,,,0.00,14,WeatherCatV1.14B232,2013-03-19 13:17:00,
2013-03-19 07:22:00,31.8,7.3,30.03,NNW,332,7.0,10.0,35,0.00,,,0.00,19,WeatherCatV1.14B232,2013-03-19 13:22:00,
2013-03-19 07:27:00,31.8,7.9,30.03,NNW,340,7.0,11.0,36,0.00,,,0.00,26,WeatherCatV1.14B232,2013-03-19 13:27:00,
2013-03-19 07:32:00,31.8,7.3,30.04,North,349,13.0,15.0,35,0.00,,,0.00,35,WeatherCatV1.14B232,2013-03-19 13:32:00,
2013-03-19 07:37:00,31.9,7.4,30.04,NW,316,10.0,16.0,35,0.00,,,0.00,44,WeatherCatV1.14B232,2013-03-19 13:37:00,
2013-03-19 07:42:00,32.1,7.6,30.04,WNW,302,2.0,3.0,35,0.00,,,0.00,49,WeatherCatV1.14B232,2013-03-19 13:42:00,
2013-03-19 07:47:00,32.4,5.9,30.04,NNE,16,6.0,11.0,32,0.00,,,0.00,91,WeatherCatV1.14B232,2013-03-19 13:47:00,
2013-03-19 07:52:00,32.8,4.8,30.04,North,353,7.0,12.0,30,0.00,,,0.00,135,WeatherCatV1.14B232,2013-03-19 13:52:00,
2013-03-19 07:57:00,33.2,4.4,30.04,NW,315,2.0,17.0,29,0.00,,,0.00,167,WeatherCatV1.14B232,2013-03-19 13:57:00,
2013-03-19 08:02:00,33.8,3.4,30.05,NNW,336,8.0,11.0,27,0.00,,,0.00,195,WeatherCatV1.14B232,2013-03-19 14:02:00,
2013-03-19 08:07:00,34.4,3.9,30.05,North,1,10.0,15.0,27,0.00,,,0.00,211,WeatherCatV1.14B232,2013-03-19 14:07:00,
2013-03-19 08:12:00,34.9,3.5,30.05,NW,325,2.0,5.0,26,0.00,,,0.00,227,WeatherCatV1.14B232,2013-03-19 14:12:00,
2013-03-19 08:17:00,35.2,3.8,30.06,NNW,332,7.0,21.0,26,0.00,,,0.00,248,WeatherCatV1.14B232,2013-03-19 14:17:00,
2013-03-19 08:22:00,35.3,2.2,30.06,NW,319,11.0,18.0,24,0.00,,,0.00,255,WeatherCatV1.14B232,2013-03-19 14:22:00,
2013-03-19 08:27:00,35.6,2.4,30.06,NW,322,7.0,17.0,24,0.00,,,0.00,290,WeatherCatV1.14B232,2013-03-19 14:27:00,
2013-03-19 08:32:00,36.2,6.3,30.06,NE,47,6.0,10.0,28,0.00,,,0.00,317,WeatherCatV1.14B232,2013-03-19 14:32:00,
2013-03-19 08:37:00,36.3,5.6,30.06,ESE,113,10.0,10.0,27,0.00,,,0.00,334,WeatherCatV1.14B232,2013-03-19 14:37:00,
2013-03-19 08:42:00,36.5,3.2,30.06,ESE,104,1.0,5.0,24,0.00,,,0.00,282,WeatherCatV1.14B232,2013-03-19 14:42:00,
2013-03-19 08:47:00,36.8,2.5,30.07,NNW,332,10.0,13.0,23,0.00,,,0.00,290,WeatherCatV1.14B232,2013-03-19 14:47:00,
2013-03-19 08:52:00,37.2,1.9,30.07,NW,325,4.0,7.0,22,0.00,,,0.00,387,WeatherCatV1.14B232,2013-03-19 14:52:00,
2013-03-19 08:57:00,37.5,1.2,30.07,WSW,247,5.0,19.0,21,0.00,,,0.00,361,WeatherCatV1.14B232,2013-03-19 14:57:00,
2013-03-19 09:02:00,37.8,-0.7,30.07,NNW,336,5.0,10.0,19,0.00,,,0.00,413,WeatherCatV1.14B232,2013-03-19 15:02:00,
2013-03-19 09:07:00,38.2,-0.4,30.07,NNW,328,3.0,7.0,19,0.00,,,0.00,408,WeatherCatV1.14B232,2013-03-19 15:07:00,
2013-03-19 09:12:00,38.5,-0.1,30.07,NNW,347,13.0,13.0,19,0.00,,,0.00,447,WeatherCatV1.14B232,2013-03-19 15:12:00,
2013-03-19 09:17:00,38.8,2.3,30.06,NNE,21,3.0,5.0,21,0.00,,,0.00,459,WeatherCatV1.14B232,2013-03-19 15:17:00,
2013-03-19 09:22:00,39.1,0.4,30.06,NNW,336,6.0,6.0,19,0.00,,,0.00,452,WeatherCatV1.14B232,2013-03-19 15:22:00,
2013-03-19 09:27:00,39.2,-1.9,30.06,West,263,5.0,7.0,17,0.00,,,0.00,408,WeatherCatV1.14B232,2013-03-19 15:27:00,
2013-03-19 09:32:00,38.9,-0.9,30.07,WNW,299,7.0,11.0,18,0.00,,,0.00,459,WeatherCatV1.14B232,2013-03-19 15:32:00,
2013-03-19 09:37:00,39.2,-0.7,30.07,WNW,282,5.0,11.0,18,0.00,,,0.00,443,WeatherCatV1.14B232,2013-03-19 15:37:00,
2013-03-19 09:42:00,39.1,-0.8,30.07,WSW,258,3.0,10.0,18,0.00,,,0.00,454,WeatherCatV1.14B232,2013-03-19 15:42:00,
2013-03-19 09:47:00,39.2,-0.7,30.07,WSW,254,3.0,7.0,18,0.00,,,0.00,489,WeatherCatV1.14B232,2013-03-19 15:47:00,
2013-03-19 09:52:00,39.1,-2.0,30.07,SW,234,5.0,8.0,17,0.00,,,0.00,544,WeatherCatV1.14B232,2013-03-19 15:52:00,
2013-03-19 09:57:00,39.2,-1.9,30.07,SW,226,5.0,17.0,17,0.00,,,0.00,549,WeatherCatV1.14B232,2013-03-19 15:57:00,
2013-03-19 10:02:00,39.1,-2.0,30.08,WSW,244,4.0,8.0,17,0.00,,,0.00,545,WeatherCatV1.14B232,2013-03-19 16:02:00,
2013-03-19 10:07:00,39.2,-3.2,30.08,WNW,294,2.0,6.0,16,0.00,,,0.00,510,WeatherCatV1.14B232,2013-03-19 16:07:00,
2013-03-19 10:12:00,39.2,-3.2,30.08,West,274,2.0,12.0,16,0.00,,,0.00,545,WeatherCatV1.14B232,2013-03-19 16:12:00,
2013-03-19 10:17:00,39.1,-2.0,30.08,WSW,250,5.0,7.0,17,0.00,,,0.00,588,WeatherCatV1.14B232,2013-03-19 16:17:00,
2013-03-19 10:22:00,39.3,-1.8,30.08,SW,217,3.0,10.0,17,0.00,,,0.00,588,WeatherCatV1.14B232,2013-03-19 16:22:00,
2013-03-19 10:27:00,39.6,-1.6,30.08,West,260,6.0,11.0,17,0.00,,,0.00,588,WeatherCatV1.14B232,2013-03-19 16:27:00,
2013-03-19 10:32:00,39.8,-2.7,30.08,NNW,330,8.0,13.0,16,0.00,,,0.00,563,WeatherCatV1.14B232,2013-03-19 16:32:00,
2013-03-19 10:37:00,39.6,-2.8,30.08,WNW,294,8.0,17.0,16,0.00,,,0.00,582,WeatherCatV1.14B232,2013-03-19 16:37:00,
2013-03-19 10:42:00,39.3,-1.8,30.08,SW,234,7.0,10.0,17,0.00,,,0.00,593,WeatherCatV1.14B232,2013-03-19 16:42:00,
2013-03-19 10:47:00,39.8,-2.7,30.08,SW,224,1.0,3.0,16,0.00,,,0.00,588,WeatherCatV1.14B232,2013-03-19 16:47:00,
2013-03-19 10:52:00,40.1,-2.4,30.08,SW,230,3.0,6.0,16,0.00,,,0.00,611,WeatherCatV1.14B232,2013-03-19 16:52:00,
2013-03-19 10:57:00,40.8,-1.9,30.08,North,1,1.0,11.0,16,0.00,,,0.00,635,WeatherCatV1.14B232,2013-03-19 16:57:00,
2013-03-19 11:02:00,41.3,-1.5,30.08,WNW,292,5.0,16.0,16,0.00,,,0.00,656,WeatherCatV1.14B232,2013-03-19 17:02:00,
2013-03-19 11:07:00,41.3,-2.8,30.08,SW,223,1.0,12.0,15,0.00,,,0.00,684,WeatherCatV1.14B232,2013-03-19 17:07:00,
2013-03-19 11:12:00,40.8,-1.9,30.08,North,349,14.0,14.0,16,0.00,,,0.00,706,WeatherCatV1.14B232,2013-03-19 17:12:00,
2013-03-19 11:17:00,41.2,-0.3,30.08,West,280,9.0,9.0,17,0.00,,,0.00,743,WeatherCatV1.14B232,2013-03-19 17:17:00,
2013-03-19 11:22:00,41.5,-1.3,30.08,West,280,16.0,18.0,16,0.00,,,0.00,765,WeatherCatV1.14B232,2013-03-19 17:22:00,
2013-03-19 11:27:00,41.2,1.0,30.08,WNW,282,10.0,12.0,18,0.00,,,0.00,806,WeatherCatV1.14B232,2013-03-19 17:27:00,
2013-03-19 11:32:00,41.3,1.0,30.08,West,267,5.0,10.0,18,0.00,,,0.00,806,WeatherCatV1.14B232,2013-03-19 17:32:00,
2013-03-19 11:37:00,41.9,1.5,30.08,WNW,284,13.0,18.0,18,0.00,,,0.00,799,WeatherCatV1.14B232,2013-03-19 17:37:00,
2013-03-19 11:42:00,41.6,-1.2,30.08,SW,222,3.0,13.0,16,0.00,,,0.00,808,WeatherCatV1.14B232,2013-03-19 17:42:00,
2013-03-19 11:47:00,41.6,0.1,30.08,SW,217,1.0,6.0,17,0.00,,,0.00,804,WeatherCatV1.14B232,2013-03-19 17:47:00,
2013-03-19 11:52:00,42.5,0.8,30.08,WSW,257,9.0,9.0,17,0.00,,,0.00,838,WeatherCatV1.14B232,2013-03-19 17:52:00,
2013-03-19 11:57:00,42.5,-0.5,30.08,WSW,250,14.0,18.0,16,0.00,,,0.00,860,WeatherCatV1.14B232,2013-03-19 17:57:00,
2013-03-19 12:02:00,42.5,-0.5,30.08,West,271,8.0,14.0,16,0.00,,,0.00,862,WeatherCatV1.14B232,2013-03-19 18:02:00,
2013-03-19 12:07:00,42.6,-0.4,30.08,South,191,11.0,12.0,16,0.00,,,0.00,822,WeatherCatV1.14B232,2013-03-19 18:07:00,
2013-03-19 12:12:00,42.9,-0.2,30.08,West,268,7.0,11.0,16,0.00,,,0.00,855,WeatherCatV1.14B232,2013-03-19 18:12:00,
2013-03-19 12:17:00,42.9,1.1,30.07,WNW,287,7.0,12.0,17,0.00,,,0.00,880,WeatherCatV1.14B232,2013-03-19 18:17:00,
2013-03-19 12:22:00,43.2,0.1,30.07,West,260,9.0,13.0,16,0.00,,,0.00,859,WeatherCatV1.14B232,2013-03-19 18:22:00,
2013-03-19 12:27:00,42.9,1.1,30.07,WSW,257,6.0,18.0,17,0.00,,,0.00,795,WeatherCatV1.14B232,2013-03-19 18:27:00,
2013-03-19 12:32:00,43.2,1.4,30.08,NW,312,8.0,14.0,17,0.00,,,0.00,769,WeatherCatV1.14B232,2013-03-19 18:32:00,
2013-03-19 12:37:00,43.6,1.7,30.08,WSW,257,6.0,12.0,17,0.00,,,0.00,901,WeatherCatV1.14B232,2013-03-19 18:37:00,
2013-03-19 12:42:00,43.3,0.2,30.08,NW,315,3.0,14.0,16,0.00,,,0.00,859,WeatherCatV1.14B232,2013-03-19 18:42:00,
2013-03-19 12:47:00,43.6,0.4,30.08,WNW,284,10.0,12.0,16,0.00,,,0.00,846,WeatherCatV1.14B232,2013-03-19 18:47:00,
2013-03-19 12:52:00,43.9,0.7,30.08,WSW,241,1.0,11.0,16,0.00,,,0.00,834,WeatherCatV1.14B232,2013-03-19 18:52:00,
2013-03-19 12:57:00,44.2,0.9,30.08,WSW,251,14.0,18.0,16,0.00,,,0.00,676,WeatherCatV1.14B232,2013-03-19 18:57:00,
2013-03-19 13:02:00,43.5,0.3,30.08,SE,145,11.0,14.0,16,0.00,,,0.00,890,WeatherCatV1.14B232,2013-03-19 19:02:00,
2013-03-19 13:07:00,43.6,0.4,30.08,SSW,199,11.0,14.0,16,0.00,,,0.00,762,WeatherCatV1.14B232,2013-03-19 19:07:00,
2013-03-19 13:12:00,43.6,0.4,30.08,SW,233,11.0,12.0,16,0.00,,,0.00,593,WeatherCatV1.14B232,2013-03-19 19:12:00,
2013-03-19 13:17:00,43.6,-1.0,30.07,WSW,243,6.0,16.0,15,0.00,,,0.00,723,WeatherCatV1.14B232,2013-03-19 19:17:00,
2013-03-19 13:22:00,43.5,-1.0,30.07,WSW,247,2.0,16.0,15,0.00,,,0.00,684,WeatherCatV1.14B232,2013-03-19 19:22:00,
2013-03-19 13:27:00,43.6,-1.0,30.07,South,191,11.0,19.0,15,0.00,,,0.00,809,WeatherCatV1.14B232,2013-03-19 19:27:00,
2013-03-19 13:32:00,43.9,-0.7,30.08,WNW,295,11.0,16.0,15,0.00,,,0.00,556,WeatherCatV1.14B232,2013-03-19 19:32:00,
2013-03-19 13:37:00,42.9,-0.2,30.08,SSW,203,8.0,19.0,16,0.00,,,0.00,632,WeatherCatV1.14B232,2013-03-19 19:37:00,
2013-03-19 13:42:00,43.3,0.2,30.08,WSW,254,4.0,21.0,16,0.00,,,0.00,744,WeatherCatV1.14B232,2013-03-19 19:42:00,
2013-03-19 13:47:00,43.8,-0.8,30.07,West,275,5.0,18.0,15,0.00,,,0.00,802,WeatherCatV1.14B232,2013-03-19 19:47:00,
2013-03-19 13:52:00,44.5,-0.2,30.07,West,271,11.0,21.0,15,0.00,,,0.00,818,WeatherCatV1.14B232,2013-03-19 19:52:00,
2013-03-19 13:57:00,44.2,-0.5,30.07,West,281,22.0,22.0,15,0.00,,,0.00,806,WeatherCatV1.14B232,2013-03-19 19:57:00,
2013-03-19 14:02:00,43.9,-2.2,30.08,SW,222,8.0,26.0,14,0.00,,,0.00,760,WeatherCatV1.14B232,2013-03-19 20:02:00,
2013-03-19 14:07:00,43.5,-1.0,30.08,SW,216,7.0,18.0,15,0.00,,,0.00,778,WeatherCatV1.14B232,2013-03-19 20:07:00,
2013-03-19 14:12:00,43.6,-1.0,30.08,WSW,243,12.0,22.0,15,0.00,,,0.00,737,WeatherCatV1.14B232,2013-03-19 20:12:00,
2013-03-19 14:17:00,43.9,-2.2,30.07,WNW,296,12.0,24.0,14,0.00,,,0.00,860,WeatherCatV1.14B232,2013-03-19 20:17:00,
2013-03-19 14:22:00,44.5,-1.7,30.07,SW,226,11.0,19.0,14,0.00,,,0.00,873,WeatherCatV1.14B232,2013-03-19 20:22:00,
2013-03-19 14:27:00,44.9,-1.4,30.07,SW,236,14.0,24.0,14,0.00,,,0.00,818,WeatherCatV1.14B232,2013-03-19 20:27:00,
2013-03-19 14:32:00,44.1,-2.0,30.07,SSW,203,13.0,13.0,14,0.00,,,0.00,836,WeatherCatV1.14B232,2013-03-19 20:32:00,
2013-03-19 14:37:00,44.9,-1.4,30.07,West,265,11.0,19.0,14,0.00,,,0.00,855,WeatherCatV1.14B232,2013-03-19 20:37:00,
2013-03-19 14:42:00,45.7,-0.7,30.07,SW,222,8.0,19.0,14,0.00,,,0.00,829,WeatherCatV1.14B232,2013-03-19 20:42:00,
2013-03-19 14:47:00,45.7,-0.7,30.07,WSW,251,4.0,7.0,14,0.00,,,0.00,644,WeatherCatV1.14B232,2013-03-19 20:47:00,
2013-03-19 14:52:00,46.2,-1.9,30.07,NW,312,10.0,15.0,13,0.00,,,0.00,787,WeatherCatV1.14B232,2013-03-19 20:52:00,
2013-03-19 14:57:00,46.1,-2.0,30.07,West,278,9.0,11.0,13,0.00,,,0.00,785,WeatherCatV1.14B232,2013-03-19 20:57:00,
2013-03-19 15:02:00,46.1,-3.6,30.07,West,280,11.0,13.0,12,0.00,,,0.00,676,WeatherCatV1.14B232,2013-03-19 21:02:00,
2013-03-19 15:07:00,46.0,-2.0,30.07,NW,308,2.0,17.0,13,0.00,,,0.00,669,WeatherCatV1.14B232,2013-03-19 21:07:00,
2013-03-19 15:12:00,45.7,-2.3,30.07,SW,222,17.0,17.0,13,0.00,,,0.00,619,WeatherCatV1.14B232,2013-03-19 21:12:00,
2013-03-19 15:17:00,44.9,-2.9,30.07,WNW,298,12.0,20.0,13,0.00,,,0.00,642,WeatherCatV1.14B232,2013-03-19 21:17:00,
2013-03-19 15:22:00,44.5,-3.2,30.07,WSW,251,14.0,16.0,13,0.00,,,0.00,556,WeatherCatV1.14B232,2013-03-19 21:22:00,
2013-03-19 15:27:00,44.3,-5.1,30.07,WNW,289,18.0,20.0,12,0.00,,,0.00,649,WeatherCatV1.14B232,2013-03-19 21:27:00,
2013-03-19 15:32:00,44.3,-5.1,30.07,West,278,6.0,16.0,12,0.00,,,0.00,609,WeatherCatV1.14B232,2013-03-19 21:32:00,
2013-03-19 15:37:00,44.5,-4.9,30.07,West,267,9.0,18.0,12,0.00,,,0.00,700,WeatherCatV1.14B232,2013-03-19 21:37:00,
2013-03-19 15:42:00,44.5,-4.9,30.07,WSW,253,9.0,17.0,12,0.00,,,0.00,653,WeatherCatV1.14B232,2013-03-19 21:42:00,
2013-03-19 15:47:00,44.8,-4.7,30.08,SW,216,12.0,17.0,12,0.00,,,0.00,655,WeatherCatV1.14B232,2013-03-19 21:47:00,
2013-03-19 15:52:00,44.8,-4.7,30.08,SSW,210,17.0,20.0,12,0.00,,,0.00,593,WeatherCatV1.14B232,2013-03-19 21:52:00,
2013-03-19 15:57:00,44.2,-6.9,30.08,WNW,291,7.0,29.0,11,0.00,,,0.00,649,WeatherCatV1.14B232,2013-03-19 21:57:00,
2013-03-19 16:02:00,44.3,-5.1,30.08,WNW,282,11.0,14.0,12,0.00,,,0.00,575,WeatherCatV1.14B232,2013-03-19 22:02:00,
2013-03-19 16:07:00,44.5,-4.9,30.08,SSW,200,2.0,12.0,12,0.00,,,0.00,611,WeatherCatV1.14B232,2013-03-19 22:07:00,
2013-03-19 16:12:00,44.8,-4.7,30.08,SW,219,6.0,13.0,12,0.00,,,0.00,600,WeatherCatV1.14B232,2013-03-19 22:12:00,
2013-03-19 16:17:00,44.6,-6.6,30.08,SW,230,8.0,24.0,11,0.00,,,0.00,568,WeatherCatV1.14B232,2013-03-19 22:17:00,
2013-03-19 16:22:00,44.6,-6.6,30.08,WSW,256,8.0,12.0,11,0.00,,,0.00,567,WeatherCatV1.14B232,2013-03-19 22:22:00,
2013-03-19 16:27:00,44.8,-6.5,30.08,WNW,298,16.0,20.0,11,0.00,,,0.00,547,WeatherCatV1.14B232,2013-03-19 22:27:00,
2013-03-19 16:32:00,44.6,-4.8,30.08,SW,219,18.0,18.0,12,0.00,,,0.00,533,WeatherCatV1.14B232,2013-03-19 22:32:00,
2013-03-19 16:37:00,44.3,-6.8,30.08,SSW,212,6.0,20.0,11,0.00,,,0.00,519,WeatherCatV1.14B232,2013-03-19 22:37:00,
2013-03-19 16:42:00,44.1,-7.0,30.08,West,265,11.0,20.0,11,0.00,,,0.00,509,WeatherCatV1.14B232,2013-03-19 22:42:00,
2013-03-19 16:47:00,44.3,-5.1,30.09,SSW,212,5.0,14.0,12,0.00,,,0.00,487,WeatherCatV1.14B232,2013-03-19 22:47:00,
2013-03-19 16:52:00,44.5,-6.7,30.09,West,263,11.0,18.0,11,0.00,,,0.00,472,WeatherCatV1.14B232,2013-03-19 22:52:00,
2013-03-19 16:57:00,43.9,-5.4,30.09,West,265,5.0,12.0,12,0.00,,,0.00,454,WeatherCatV1.14B232,2013-03-19 22:57:00,
2013-03-19 17:02:00,44.1,-5.2,30.09,SW,234,3.0,8.0,12,0.00,,,0.00,429,WeatherCatV1.14B232,2013-03-19 23:02:00,
2013-03-19 17:07:00,44.1,-7.0,30.09,WNW,289,9.0,24.0,11,0.00,,,0.00,406,WeatherCatV1.14B232,2013-03-19 23:07:00,
2013-03-19 17:12:00,44.2,-6.9,30.09,SSW,213,7.0,14.0,11,0.00,,,0.00,405,WeatherCatV1.14B232,2013-03-19 23:12:00,
2013-03-19 17:17:00,44.2,-6.9,30.09,SSW,199,6.0,14.0,11,0.00,,,0.00,382,WeatherCatV1.14B232,2013-03-19 23:17:00,
2013-03-19 17:22:00,43.9,-7.2,30.09,WNW,285,10.0,16.0,11,0.00,,,0.00,371,WeatherCatV1.14B232,2013-03-19 23:22:00,
2013-03-19 17:27:00,43.3,-7.6,30.09,SSW,196,3.0,12.0,11,0.00,,,0.00,355,WeatherCatV1.14B232,2013-03-19 23:27:00,
2013-03-19 17:32:00,43.6,-7.4,30.10,West,265,6.0,17.0,11,0.00,,,0.00,348,WeatherCatV1.14B232,2013-03-19 23:32:00,
2013-03-19 17:37:00,43.3,-7.6,30.10,NW,323,8.0,13.0,11,0.00,,,0.00,338,WeatherCatV1.14B232,2013-03-19 23:37:00,
2013-03-19 17:42:00,42.8,-8.0,30.10,SW,232,8.0,26.0,11,0.00,,,0.00,296,WeatherCatV1.14B232,2013-03-19 23:42:00,
2013-03-19 17:47:00,42.5,-8.3,30.10,SW,227,5.0,7.0,11,0.00,,,0.00,310,WeatherCatV1.14B232,2013-03-19 23:47:00,
2013-03-19 17:52:00,42.8,-8.0,30.10,West,261,11.0,15.0,11,0.00,,,0.00,350,WeatherCatV1.14B232,2013-03-19 23:52:00,
2013-03-19 17:57:00,42.9,-7.9,30.10,WNW,285,9.0,13.0,11,0.00,,,0.00,232,WeatherCatV1.14B232,2013-03-19 23:57:00,
2013-03-19 18:02:00,42.8,-8.0,30.11,WSW,246,5.0,11.0,11,0.00,,,0.00,220,WeatherCatV1.14B232,2013-03-20 00:02:00,
2013-03-19 18:07:00,42.1,-8.6,30.11,SW,224,5.0,10.0,11,0.00,,,0.00,199,WeatherCatV1.14B232,2013-03-20 00:07:00,
2013-03-19 18:12:00,41.8,-8.8,30.11,WNW,294,2.0,12.0,11,0.00,,,0.00,141,WeatherCatV1.14B232,2013-03-20 00:12:00,
2013-03-19 18:17:00,41.6,-9.0,30.11,WNW,299,6.0,9.0,11,0.00,,,0.00,134,WeatherCatV1.14B232,2013-03-20 00:17:00,
2013-03-19 18:22:00,41.3,-9.2,30.11,SW,234,6.0,17.0,11,0.00,,,0.00,116,WeatherCatV1.14B232,2013-03-20 00:22:00,
2013-03-19 18:27:00,40.8,-9.6,30.11,SW,224,10.0,14.0,11,0.00,,,0.00,111,WeatherCatV1.14B232,2013-03-20 00:27:00,
2013-03-19 18:32:00,40.6,-9.7,30.12,West,265,6.0,8.0,11,0.00,,,0.00,114,WeatherCatV1.14B232,2013-03-20 00:32:00,
2013-03-19 18:37:00,40.6,-9.7,30.12,West,267,3.0,6.0,11,0.00,,,0.00,74,WeatherCatV1.14B232,2013-03-20 00:37:00,
2013-03-19 18:42:00,40.5,-9.8,30.12,West,267,3.0,5.0,11,0.00,,,0.00,60,WeatherCatV1.14B232,2013-03-20 00:42:00,
2013-03-19 18:47:00,39.9,-8.5,30.13,NW,312,2.0,8.0,12,0.00,,,0.00,51,WeatherCatV1.14B232,2013-03-20 00:47:00,
2013-03-19 18:52:00,39.3,-9.0,30.13,WNW,301,3.0,10.0,12,0.00,,,0.00,40,WeatherCatV1.14B232,2013-03-20 00:52:00,
2013-03-19 18:57:00,38.9,-9.3,30.13,WNW,302,6.0,6.0,12,0.00,,,0.00,33,WeatherCatV1.14B232,2013-03-20 00:57:00,
2013-03-19 19:02:00,38.3,-11.5,30.13,NW,323,5.0,8.0,11,0.00,,,0.00,25,WeatherCatV1.14B232,2013-03-20 01:02:00,
2013-03-19 19:07:00,37.9,-10.1,30.13,NW,306,7.0,7.0,12,0.00,,,0.00,19,WeatherCatV1.14B232,2013-03-20 01:07:00,
2013-03-19 19:12:00,37.5,-10.4,30.13,NW,311,5.0,6.0,12,0.00,,,0.00,11,WeatherCatV1.14B232,2013-03-20 01:12:00,
2013-03-19 19:17:00,36.9,-10.9,30.14,NW,313,7.0,7.0,12,0.00,,,0.00,7,WeatherCatV1.14B232,2013-03-20 01:17:00,
2013-03-19 19:22:00,36.5,-11.2,30.14,WNW,301,6.0,7.0,12,0.00,,,0.00,5,WeatherCatV1.14B232,2013-03-20 01:22:00,
2013-03-19 19:27:00,36.3,-11.4,30.14,WNW,301,6.0,7.0,12,0.00,,,0.00,5,WeatherCatV1.14B232,2013-03-20 01:27:00,
2013-03-19 19:32:00,35.9,-11.7,30.14,WNW,289,8.0,8.0,12,0.00,,,0.00,0,WeatherCatV1.14B232,2013-03-20 01:32:00,
2013-03-19 19:37:00,35.6,-11.9,30.14,NW,308,7.0,10.0,12,0.00,,,0.00,0,WeatherCatV1.14B232,2013-03-20 01:37:00,
2013-03-19 19:42:00,35.3,-9.1,30.14,West,277,6.0,9.0,14,0.00,,,0.00,0,WeatherCatV1.14B232,2013-03-20 01:42:00,
2013-03-19 19:47:00,34.9,-9.4,30.15,West,280,6.0,8.0,14,0.00,,,0.00,0,WeatherCatV1.14B232,2013-03-20 01:47:00,
2013-03-19 19:52:00,34.4,-8.4,30.15,West,280,6.0,8.0,15,0.00,,,0.00,0,WeatherCatV1.14B232,2013-03-20 01:52:00,
2013-03-19 19:57:00,34.0,-8.7,30.15,West,281,7.0,7.0,15,0.00,,,0.00,0,WeatherCatV1.14B232,2013-03-20 01:57:00,
2013-03-19 20:02:00,33.8,-8.9,30.15,WNW,302,6.0,9.0,15,0.00,,,0.00,0,WeatherCatV1.14B232,2013-03-20 02:02:00,
2013-03-19 20:07:00,33.7,-9.0,30.15,WNW,301,7.0,8.0,15,0.00,,,0.00,0,WeatherCatV1.14B232,2013-03-20 02:07:00,
2013-03-19 20:12:00,33.5,-9.1,30.15,WNW,295,6.0,7.0,15,0.00,,,0.00,0,WeatherCatV1.14B232,2013-03-20 02:12:00,
2013-03-19 20:17:00,33.2,-8.1,30.16,WNW,285,8.0,11.0,16,0.00,,,0.00,0,WeatherCatV1.14B232,2013-03-20 02:17:00,
2013-03-19 20:22:00,32.9,-7.1,30.16,WNW,302,6.0,10.0,17,0.00,,,0.00,0,WeatherCatV1.14B232,2013-03-20 02:22:00,
2013-03-19 20:27:00,32.5,-7.4,30.16,NW,319,7.0,12.0,17,0.00,,,0.00,0,WeatherCatV1.14B232,2013-03-20 02:27:00,
2013-03-19 20:32:00,32.4,-7.5,30.16,WNW,299,6.0,11.0,17,0.00,,,0.00,0,WeatherCatV1.14B232,2013-03-20 02:32:00,
2013-03-19 20:37:00,32.5,-7.4,30.16,NW,322,6.0,13.0,17,0.00,,,0.00,0,WeatherCatV1.14B232,2013-03-20 02:37:00,
2013-03-19 20:42:00,32.7,-6.1,30.16,NW,306,7.0,10.0,18,0.00,,,0.00,0,WeatherCatV1.14B232,2013-03-20 02:42:00,
2013-03-19 20:47:00,32.7,-6.1,30.17,NW,315,8.0,12.0,18,0.00,,,0.00,0,WeatherCatV1.14B232,2013-03-20 02:47:00,
2013-03-19 20:52:00,32.8,-6.0,30.17,WNW,296,7.0,10.0,18,0.00,,,0.00,0,WeatherCatV1.14B232,2013-03-20 02:52:00,
2013-03-19 20:57:00,32.7,-6.1,30.17,WNW,294,6.0,10.0,18,0.00,,,0.00,0,WeatherCatV1.14B232,2013-03-20 02:57:00,
2013-03-19 21:02:00,32.7,-6.1,30.17,NW,305,11.0,12.0,18,0.00,,,0.00,0,WeatherCatV1.14B232,2013-03-20 03:02:00,
2013-03-19 21:07:00,32.5,-6.2,30.17,NW,318,12.0,13.0,18,0.00,,,0.00,0,WeatherCatV1.14B232,2013-03-20 03:07:00,
2013-03-19 21:12:00,32.5,-6.2,30.17,WNW,285,13.0,16.0,18,0.00,,,0.00,0,WeatherCatV1.14B232,2013-03-20 03:12:00,
2013-03-19 21:17:00,32.4,-6.3,30.17,NW,313,6.0,14.0,18,0.00,,,0.00,0,WeatherCatV1.14B232,2013-03-20 03:17:00,
2013-03-19 21:22:00,32.2,-6.5,30.17,NW,316,10.0,13.0,18,0.00,,,0.00,0,WeatherCatV1.14B232,2013-03-20 03:22:00,
2013-03-19 21:27:00,32.2,-7.7,30.17,NW,306,5.0,12.0,17,0.00,,,0.00,0,WeatherCatV1.14B232,2013-03-20 03:27:00,
2013-03-19 21:32:00,32.1,-6.6,30.18,NW,323,8.0,12.0,18,0.00,,,0.00,0,WeatherCatV1.14B232,2013-03-20 03:32:00,
2013-03-19 21:35:00,32.5,-7.4,30.16,NW,308,7.0,11.0,17,0.00,,,0.00,0,WeatherCatV1.14B232,2013-03-20 03:35:00,
2013-03-19 21:37:00,31.6,-4.8,30.18,NW,305,8.0,13.0,20,0.00,,,0.00,0,WeatherCatV1.14B232,2013-03-20 03:37:00,
2013-03-19 21:40:00,32.7,-7.2,30.16,NW,313,7.0,13.0,17,0.00,,,0.00,0,WeatherCatV1.14B232,2013-03-20 03:40:00,
2013-03-19 21:45:00,30.6,-3.7,30.18,NW,315,9.0,13.0,22,0.00,,,0.00,0,WeatherCatV1.14B232,2013-03-20 03:45:00,
2013-03-19 21:50:00,32.8,-6.0,30.17,NW,313,8.0,12.0,18,0.00,,,0.00,0,WeatherCatV1.14B232,2013-03-20 03:50:00,
2013-03-19 21:55:00,32.8,-6.0,30.17,NW,305,8.0,13.0,18,0.00,,,0.00,0,WeatherCatV1.14B232,2013-03-20 03:55:00,
2013-03-19 22:00:00,29.5,-3.7,30.19,WNW,292,6.0,11.0,23,0.00,,,0.00,0,WeatherCatV1.14B232,2013-03-20 04:00:00,
2013-03-19 22:05:00,32.7,-6.1,30.17,NW,309,9.0,13.0,18,0.00,,,0.00,0,WeatherCatV1.14B232,2013-03-20 04:05:00,
2013-03-19 22:10:00,32.7,-6.1,30.17,NW,309,9.0,13.0,18,0.00,,,0.00,0,WeatherCatV1.14B232,2013-03-20 04:10:00,
2013-03-19 22:15:00,32.5,-6.2,30.17,NW,307,9.0,13.0,18,0.00,,,0.00,0,WeatherCatV1.14B232,2013-03-20 04:15:00,
2013-03-19 22:20:00,28.8,-5.2,30.20,WNW,292,4.0,10.0,22,0.00,,,0.00,0,WeatherCatV1.14B232,2013-03-20 04:20:00,
2013-03-19 22:25:00,32.2,-6.5,30.17,NW,307,10.0,14.0,18,0.00,,,0.00,0,WeatherCatV1.14B232,2013-03-20 04:25:00,
2013-03-19 22:30:00,32.2,-7.7,30.17,NW,308,10.0,14.0,17,0.00,,,0.00,0,WeatherCatV1.14B232,2013-03-20 04:30:00,
2013-03-19 22:35:00,28.2,-4.8,30.20,West,270,1.0,7.0,23,0.00,,,0.00,0,WeatherCatV1.14B232,2013-03-20 04:35:00,
2013-03-19 22:40:00,31.9,-5.6,30.18,NW,310,8.0,12.0,19,0.00,,,0.00,0,WeatherCatV1.14B232,2013-03-20 04:40:00,
2013-03-19 22:45:00,31.9,-5.6,30.18,NW,310,8.0,12.0,19,0.00,,,0.00,0,WeatherCatV1.14B232,2013-03-20 04:45:00,
2013-03-19 22:50:00,27.5,-4.5,30.20,West,270,5.0,10.0,24,0.00,,,0.00,0,WeatherCatV1.14B232,2013-03-20 04:50:00,
2013-03-19 22:55:00,27.5,-4.5,30.20,West,270,5.0,10.0,24,0.00,,,0.00,0,WeatherCatV1.14B232,2013-03-20 04:55:00,
2013-03-19 23:00:00,27.5,-4.5,30.20,West,270,5.0,10.0,24,0.00,,,0.00,0,WeatherCatV1.14B232,2013-03-20 05:00:00,
2013-03-19 23:05:00,26.9,-5.0,30.20,WNW,292,4.0,8.0,24,0.00,,,0.00,0,WeatherCatV1.14B232,2013-03-20 05:05:00,
2013-03-19 23:10:00,26.9,-5.0,30.20,WNW,292,4.0,8.0,24,0.00,,,0.00,0,WeatherCatV1.14B232,2013-03-20 05:10:00,
2013-03-19 23:15:00,26.9,-5.0,30.20,WNW,292,4.0,8.0,24,0.00,,,0.00,0,WeatherCatV1.14B232,2013-03-20 05:15:00,
2013-03-19 23:20:00,26.6,-6.1,30.20,WNW,292,5.0,12.0,23,0.00,,,0.00,0,WeatherCatV1.14B232,2013-03-20 05:20:00,
2013-03-19 23:25:00,26.6,-6.1,30.20,WNW,292,5.0,12.0,23,0.00,,,0.00,0,WeatherCatV1.14B232,2013-03-20 05:25:00,
2013-03-19 23:30:00,26.6,-6.1,30.20,WNW,292,5.0,12.0,23,0.00,,,0.00,0,WeatherCatV1.14B232,2013-03-20 05:30:00,
2013-03-19 23:35:00,26.9,-6.8,30.20,WNW,292,9.0,17.0,22,0.00,,,0.00,0,WeatherCatV1.14B232,2013-03-20 05:35:00,
2013-03-19 23:40:00,26.9,-6.8,30.20,WNW,292,9.0,17.0,22,0.00,,,0.00,0,WeatherCatV1.14B232,2013-03-20 05:40:00,
2013-03-19 23:45:00,26.9,-6.8,30.20,WNW,292,9.0,17.0,22,0.00,,,0.00,0,WeatherCatV1.14B232,2013-03-20 05:45:00,
2013-03-19 23:50:00,26.4,-6.3,30.20,WNW,292,7.0,13.0,23,0.00,,,0.00,0,WeatherCatV1.14B232,2013-03-20 05:50:00,
2013-03-19 23:55:00,26.4,-6.3,30.20,WNW,292,7.0,13.0,23,0.00,,,0.00,0,WeatherCatV1.14B232,2013-03-20 05:55:00,